[[{"header":{"parameterUnit":"m.s-1","parameterCategory":1,"la1":30.2991,"la2":30.254,"lo1":-89.0895,"lo2":-89.0444,"dy":0.0017,"dx":0.0017,"nx":28,"ny":28,"refTime":"2025-11-18T09:00:00:Z","depth":0,"parameterNumber":2,"parameterNumberName":"U-component_of_WINDS"},"data":[0,0,0,0,0,0,0,0,0,0,0,0,0,0,0,0,0,0,0,0,0,0,0,0,0,0,0,0,0,0,0,0,0,0,0,0,0,0,0,0,0,0,0,0,0,0,0,0,0,0,0,0,0,0,0,0,0,0,-0.4827,-0.4827,0,-0.4777,-0.4776,-0.4776,-0.4751,-0.4751,-0.4751,-0.4751,-0.47,-0.4698,-0.4697,0,0,0,0,0,0,0,0,0,0,0,0,0,-0.4902,-0.4901,-0.4827,-0.4827,-0.4826,-0.4777,-0.4776,-0.4776,-0.4751,-0.4751,-0.4751,-0.4751,-0.47,-0.4698,-0.4697,0,0,0,0,0,0,0,0,0,0,0,0,0,-0.4863,-0.4901,-0.4828,-0.4808,-0.4806,-0.4777,-0.4776,-0.4776,-0.4751,-0.4751,-0.4751,-0.4751,-0.4701,-0.4699,-0.4697,-0.4684,0,0,-0.469,-0.4689,0,0,0,0,0,0,0,0,-0.4865,-0.486,-0.4811,-0.4809,-0.4807,-0.477,-0.4784,-0.4745,-0.4751,-0.4772,-0.4751,-0.4751,-0.4723,-0.4719,-0.471,-0.4682,-0.4679,-0.469,-0.4689,-0.4688,-0.4688,0,0,0,0,0,0,0,-0.4868,-0.4862,-0.4807,-0.4811,-0.4808,-0.4802,-0.4796,-0.4776,-0.4748,-0.477,-0.4768,-0.4762,-0.4722,-0.4712,-0.4708,-0.4679,-0.469,-0.4688,-0.4687,-0.4686,-0.4638,-0.4637,0,0,0,0,0,0,-0.4874,-0.4864,-0.4809,-0.4806,-0.4836,-0.48,-0.4794,-0.4782,-0.4748,-0.4743,-0.4762,-0.4761,-0.4715,-0.4711,-0.4707,-0.4689,-0.4688,-0.4686,-0.4685,-0.4638,-0.4637,-0.4637,0,0,0,0,0,0,-0.4875,-0.4869,-0.4811,-0.4835,-0.4827,-0.4799,-0.4786,-0.4781,-0.4771,-0.4743,-0.4737,-0.4757,-0.4715,-0.4709,-0.469,-0.4687,-0.4685,-0.4683,-0.4638,-0.4638,-0.4637,-0.4655,0,0,0,0,0,0,-0.4878,-0.487,-0.4865,-0.4835,-0.4826,-0.4795,-0.4786,-0.478,-0.4767,-0.4766,-0.4737,-0.4732,-0.4715,-0.4693,-0.4688,-0.4684,-0.4682,-0.4638,-0.4638,-0.4637,-0.4655,-0.4656,-0.4657,0,0,0,0,0,-0.488,-0.4872,-0.4864,-0.4858,-0.4819,-0.4795,-0.479,-0.4771,-0.4767,-0.4762,-0.4744,-0.4733,-0.4689,-0.4691,-0.4685,-0.4681,-0.4638,-0.4638,-0.4638,-0.4654,-0.4656,-0.4657,0,0,0,0,0,0,-0.4902,-0.4867,-0.4859,-0.4841,-0.4821,-0.4791,-0.4784,-0.4773,-0.4754,-0.4753,-0.4729,-0.4723,-0.4706,-0.4691,-0.4695,-0.4667,-0.4662,-0.4661,-0.4677,-0.4678,-0.4679,-0.4682,-0.468,0,0,0,0,0,-0.4905,-0.4889,-0.4859,-0.4846,-0.4836,-0.4812,-0.4801,-0.4787,-0.4766,-0.4758,-0.4738,-0.4718,-0.47,-0.4688,-0.467,-0.4653,-0.4646,-0.4647,-0.4648,-0.4649,-0.4648,-0.4638,-0.4638,-0.4637,-0.4637,-0.4637,0,0,-0.491,-0.4889,-0.488,-0.4849,-0.4833,-0.4816,-0.4805,-0.4788,-0.4776,-0.4755,-0.4735,-0.472,-0.4696,-0.4678,-0.4669,-0.4666,-0.4647,-0.4649,-0.465,-0.4648,-0.4637,-0.4638,-0.4638,-0.4637,-0.4637,-0.4637,0,0,-0.4912,-0.4894,-0.4881,-0.4864,-0.4839,-0.4823,-0.482,-0.4791,-0.478,-0.476,-0.4744,-0.4729,-0.4698,-0.4682,-0.4669,-0.4664,-0.4653,-0.4659,-0.4664,-0.4654,-0.4654,-0.4654,-0.4652,-0.4651,-0.4658,-0.4658,-0.4658,0,-0.4921,-0.4896,-0.4875,-0.4859,-0.4846,-0.4827,-0.4813,-0.4798,-0.4768,-0.476,-0.4756,-0.4717,-0.4699,-0.4677,-0.4675,-0.4666,-0.4662,-0.4662,-0.4656,-0.4655,-0.4655,-0.4653,-0.4652,-0.4659,-0.4659,-0.4659,-0.4659,0,-0.4909,-0.4892,-0.4884,-0.4855,-0.4841,-0.4827,-0.4804,-0.4792,-0.478,-0.4764,-0.4744,-0.4722,-0.4699,-0.4693,-0.4681,-0.4668,-0.4667,-0.466,-0.4654,-0.4656,-0.4654,-0.4653,-0.466,-0.466,-0.4659,-0.4659,0,0,-0.4923,-0.4883,-0.488,-0.4867,-0.4838,-0.4824,-0.4808,-0.4785,-0.4775,-0.4756,-0.4742,-0.4716,-0.4709,-0.4695,-0.4681,-0.4673,-0.467,-0.4667,-0.4666,-0.4668,-0.4654,-0.466,-0.4659,-0.4662,-0.4662,-0.4662,-0.4656,0,-0.492,-0.4891,-0.4872,-0.485,-0.4833,-0.4815,-0.4801,-0.4782,-0.4767,-0.475,-0.4734,-0.4715,-0.4708,-0.4699,-0.469,-0.4672,-0.4667,-0.4672,-0.4649,-0.4649,-0.4656,-0.4658,-0.4663,-0.4659,-0.4655,-0.4655,-0.4655,0,-0.4913,-0.4893,-0.4869,-0.4842,-0.4834,-0.4822,-0.4799,-0.4784,-0.4762,-0.4751,-0.4735,-0.4721,-0.4704,-0.47,-0.4676,-0.468,-0.467,-0.4659,-0.4659,-0.4656,-0.4652,-0.4654,-0.4657,-0.4656,-0.4653,-0.4653,-0.4654,0,-0.4925,-0.4892,-0.4874,-0.4863,-0.483,-0.4822,-0.4808,-0.4786,-0.4773,-0.4753,-0.4745,-0.4723,-0.4712,-0.4695,-0.4676,-0.4675,-0.4654,-0.4648,-0.4644,-0.4645,-0.4641,-0.4641,-0.4641,-0.4634,-0.4634,-0.4634,-0.4634,0,-0.4923,-0.491,-0.4879,-0.4868,-0.4852,-0.483,-0.4815,-0.4799,-0.478,-0.4765,-0.4748,-0.4735,-0.471,-0.4694,-0.4678,-0.466,-0.4655,-0.4646,-0.4642,-0.4648,-0.4649,-0.464,-0.464,-0.4634,-0.4634,-0.4634,-0.4634,0,-0.4934,-0.4913,-0.4892,-0.4862,-0.4854,-0.4844,-0.4819,-0.4807,-0.4791,-0.4773,-0.4767,-0.4742,-0.4722,-0.4701,-0.4674,-0.4663,-0.4646,-0.4641,-0.4654,-0.4651,-0.4649,-0.4649,-0.4643,-0.4641,-0.4636,-0.4636,-0.4636,0,-0.4934,-0.4923,-0.4892,-0.4881,-0.4868,-0.485,-0.4837,-0.4815,-0.4802,-0.4776,-0.4767,-0.4746,-0.4727,-0.4696,-0.4676,-0.4655,-0.4649,-0.4648,-0.4645,-0.4651,-0.4648,-0.4649,-0.4648,-0.4649,-0.4649,-0.4649,-0.4649,0,-0.4937,-0.4927,-0.4909,-0.4886,-0.4871,-0.4853,-0.4834,-0.4826,-0.48,-0.4787,-0.4766,-0.4751,-0.4724,-0.4703,-0.4679,-0.4665,-0.4653,-0.465,-0.4648,-0.4653,-0.4661,-0.4657,-0.4656,-0.465,-0.465,-0.465,-0.465,-0.465,-0.4942,-0.4932,-0.4908,-0.4888,-0.4871,-0.4854,-0.4842,-0.4824,-0.4806,-0.4781,-0.4769,-0.4748,-0.4726,-0.4693,-0.4679,-0.4663,-0.4659,-0.4656,-0.4656,-0.4655,-0.4656,-0.4664,-0.4659,-0.4658,-0.4658,-0.4658,-0.4658,0,-0.4944,-0.4928,-0.491,-0.4884,-0.4868,-0.4858,-0.4836,-0.4823,-0.4805,-0.4785,-0.4767,-0.4743,-0.4723,-0.47,-0.4679,-0.467,-0.4664,-0.4665,-0.4665,-0.4662,-0.4661,-0.4665,-0.467,-0.467,-0.467,-0.467,-0.467,-0.467,-0.4943,-0.4924,-0.4912,-0.4884,-0.4868,-0.4847,-0.4836,-0.482,-0.4803,-0.4777,-0.476,-0.4745,-0.4724,-0.4701,-0.4682,-0.4675,-0.4668,-0.4671,-0.4663,-0.4663,-0.4662,-0.4661,-0.4664,-0.4669,-0.4669,-0.4665,-0.4665,-0.4665]},{"header":{"parameterUnit":"m.s-1","parameterCategory":1,"la1":30.2991,"la2":30.254,"lo1":-89.0895,"lo2":-89.0444,"dy":0.0017,"dx":0.0017,"nx":28,"ny":28,"refTime":"2025-11-18T09:00:00:Z","depth":0,"parameterNumber":3,"parameterNumberName":"V-component_of_WINDS"},"data":[0,0,0,0,0,0,0,0,0,0,0,0,0,0,0,0,0,0,0,0,0,0,0,0,0,0,0,0,0,0,0,0,0,0,0,0,0,0,0,0,0,0,0,0,0,0,0,0,0,0,0,0,0,0,0,0,0,0,2.5531,2.553,0,2.5477,2.5477,2.5476,2.5442,2.5442,2.5442,2.5442,2.5383,2.5382,2.538,0,0,0,0,0,0,0,0,0,0,0,0,0,2.5602,2.5601,2.5531,2.553,2.5529,2.5477,2.5477,2.5476,2.5442,2.5442,2.5442,2.5442,2.5383,2.5382,2.538,0,0,0,0,0,0,0,0,0,0,0,0,0,2.5562,2.56,2.5531,2.5507,2.5504,2.5477,2.5477,2.5476,2.5442,2.5442,2.5442,2.5442,2.5384,2.5382,2.538,2.5372,0,0,2.5373,2.5372,0,0,0,0,0,0,0,0,2.5564,2.5559,2.5511,2.5508,2.5505,2.5466,2.548,2.5441,2.5442,2.5466,2.5442,2.5441,2.5411,2.5406,2.5397,2.5369,2.5367,2.5373,2.5372,2.5371,2.537,0,0,0,0,0,0,0,2.5567,2.5561,2.5509,2.551,2.5507,2.5498,2.5492,2.5472,2.544,2.5463,2.5461,2.5455,2.5409,2.5399,2.5395,2.5366,2.5373,2.5371,2.537,2.5369,2.5333,2.5333,0,0,0,0,0,0,2.5574,2.5564,2.5511,2.5508,2.5535,2.5497,2.549,2.5479,2.544,2.5434,2.5456,2.5454,2.5403,2.5398,2.5393,2.5383,2.5371,2.5369,2.5368,2.5332,2.5333,2.5333,0,0,0,0,0,0,2.5576,2.557,2.5513,2.5535,2.5527,2.5496,2.5484,2.5478,2.5468,2.5434,2.5428,2.5451,2.5402,2.5396,2.5379,2.5381,2.5368,2.5366,2.5332,2.5332,2.5333,2.5363,0,0,0,0,0,0,2.5578,2.557,2.5568,2.5535,2.5526,2.55,2.5484,2.5477,2.5465,2.5462,2.5429,2.5423,2.5401,2.5382,2.5376,2.5377,2.5365,2.5332,2.5332,2.5333,2.5362,2.5364,2.5367,0,0,0,0,0,2.5581,2.5577,2.5568,2.5561,2.5522,2.5501,2.5495,2.5472,2.5465,2.5462,2.5441,2.5424,2.5381,2.538,2.5374,2.5374,2.5331,2.5332,2.5333,2.536,2.5364,2.5367,0,0,0,0,0,0,2.5608,2.5572,2.5561,2.5547,2.5528,2.5495,2.549,2.5476,2.5456,2.5455,2.5425,2.5418,2.5404,2.5387,2.5387,2.5366,2.5355,2.5354,2.5378,2.5381,2.5383,2.5387,2.5363,0,0,0,0,0,2.5612,2.5599,2.5568,2.5558,2.5549,2.5522,2.5511,2.5495,2.5473,2.5464,2.5441,2.542,2.5402,2.539,2.5371,2.5359,2.5352,2.5356,2.5359,2.5361,2.5361,2.5355,2.5358,2.5335,2.5335,2.5335,0,0,2.5621,2.56,2.5593,2.5563,2.5546,2.5532,2.5514,2.55,2.549,2.5461,2.5444,2.5427,2.5401,2.5387,2.538,2.5373,2.5366,2.5362,2.5364,2.5363,2.5356,2.5359,2.536,2.5335,2.5335,2.5335,0,0,2.563,2.5613,2.5604,2.5588,2.5563,2.5545,2.5543,2.5514,2.5502,2.5485,2.5464,2.5451,2.542,2.5403,2.539,2.5397,2.5381,2.5391,2.5404,2.5399,2.5401,2.5402,2.5406,2.5408,2.5391,2.5391,2.5391,0,2.5644,2.5623,2.5601,2.5589,2.5577,2.5553,2.5544,2.5529,2.5499,2.5491,2.5484,2.5447,2.5427,2.541,2.5412,2.5402,2.5399,2.5395,2.5403,2.5404,2.5405,2.5408,2.5409,2.5393,2.5392,2.5392,2.5392,0,2.5642,2.5628,2.5624,2.5598,2.5586,2.5575,2.5551,2.5541,2.5527,2.551,2.5494,2.547,2.5448,2.5442,2.5427,2.5423,2.542,2.5409,2.5396,2.5409,2.5412,2.5413,2.5395,2.5394,2.5394,2.5393,0,0,2.5665,2.5629,2.5628,2.5617,2.5589,2.5578,2.5567,2.5546,2.5539,2.552,2.551,2.5486,2.5476,2.5462,2.5445,2.544,2.5449,2.5429,2.5428,2.5435,2.5446,2.5455,2.5457,2.5439,2.5439,2.5439,2.5449,0,2.5671,2.5651,2.5631,2.5618,2.5606,2.5585,2.5575,2.5557,2.5542,2.5529,2.5511,2.5495,2.5482,2.5474,2.5469,2.5449,2.5451,2.5448,2.543,2.543,2.5438,2.5458,2.5467,2.5477,2.5449,2.5449,2.5449,0,2.5674,2.5658,2.5645,2.5621,2.5615,2.5607,2.5588,2.5576,2.5556,2.5545,2.5531,2.5514,2.5502,2.5491,2.5474,2.5473,2.5465,2.5454,2.5454,2.5452,2.544,2.5457,2.5479,2.5481,2.545,2.545,2.545,0,2.5694,2.5669,2.5658,2.5649,2.562,2.5616,2.5604,2.5583,2.5573,2.5557,2.555,2.5532,2.5522,2.5508,2.5487,2.5481,2.5473,2.546,2.5464,2.5464,2.5462,2.5463,2.5485,2.5456,2.5456,2.5456,2.5456,0,2.5702,2.5695,2.5667,2.566,2.5652,2.563,2.5623,2.5608,2.5591,2.5582,2.5561,2.5553,2.5525,2.5513,2.5496,2.5486,2.5481,2.5472,2.5468,2.5475,2.5476,2.5469,2.5468,2.5457,2.5456,2.5456,2.5456,0,2.5722,2.5703,2.569,2.5666,2.5659,2.5654,2.5633,2.5626,2.5611,2.5599,2.5595,2.557,2.5556,2.5534,2.5511,2.55,2.5493,2.5486,2.5501,2.5498,2.5504,2.5504,2.5522,2.5524,2.5494,2.5494,2.5494,0,2.5728,2.5723,2.5699,2.5692,2.5681,2.567,2.566,2.5639,2.563,2.5609,2.5605,2.5589,2.5575,2.5553,2.5533,2.5517,2.5509,2.5517,2.5506,2.5514,2.5511,2.5511,2.5512,2.5519,2.5519,2.552,2.552,0,2.5743,2.5735,2.5723,2.5708,2.5698,2.5685,2.5671,2.5666,2.5642,2.5633,2.5619,2.5609,2.5589,2.5574,2.5556,2.5542,2.5528,2.5524,2.5524,2.5531,2.554,2.5537,2.5508,2.5523,2.5523,2.5523,2.5522,2.5522,2.5757,2.5752,2.5735,2.5723,2.5711,2.5699,2.5693,2.5678,2.5666,2.5649,2.5637,2.5624,2.5606,2.5581,2.5569,2.5559,2.5552,2.5552,2.5552,2.5552,2.5556,2.5542,2.5555,2.5555,2.5555,2.5555,2.5555,0,2.5771,2.576,2.5749,2.5732,2.5723,2.5712,2.5697,2.569,2.5679,2.5665,2.5653,2.5638,2.5625,2.5605,2.559,2.5585,2.5579,2.5582,2.5582,2.558,2.5562,2.5564,2.5588,2.5588,2.5588,2.5588,2.5588,2.5588,2.5777,2.5769,2.576,2.5746,2.5735,2.5724,2.5716,2.5706,2.5694,2.5679,2.5669,2.5657,2.564,2.5625,2.5612,2.5607,2.5602,2.5609,2.5601,2.5584,2.5581,2.5578,2.558,2.5608,2.5608,2.5621,2.5621,2.5621]}]]